This demonstration page uses our WeatherBlox Daily Observations layout. Learn more.

Left ArrowRight Arrow

38.20091, -84.87328

Hourly Observations for July 1, 2022

Temp ( °F °C ) Dew Point ( °F °C ) Humidity (%) Winds ( mph kmh ) Pressure ( in mb ) Visibility ( mi km ) Precip ( " mm )
12:53 am 00:53 Partly Cloudy 74 23.3 71 21.7 91 91 WSW 3 6 30.05 1018 10 16 0.00 0.00
1:53 am 01:53 Mostly Cloudy 75 23.9 71 21.7 88 88 SE 5 7 30.04 1017 10 16 0.00 0.00
2:53 am 02:53 Mostly Clear 75 23.9 70 21.1 84 84 SSW 5 7 30.04 1017 10 16 0.00 0.00
3:53 am 03:53 Mostly Cloudy 75 23.9 70 21.1 84 84 SSW 3 6 30.04 1017 10 16 0.00 0.00
4:53 am 04:53 Partly Cloudy 74 23.3 70 21.1 88 88 SSW 5 7 30.04 1017 10 16 0.00 0.00
5:53 am 05:53 Clear 74 23.3 69 20.6 85 85 SSW 6 9 30.04 1017 10 16 0.00 0.00
6:53 am 06:53 Sunny 74 23.3 70 21.1 88 88 SW 7 11 30.05 1018 10 16 0.00 0.00
7:53 am 07:53 Sunny 77 25 71 21.7 82 82 SW 8 13 30.06 1018 10 16 0.00 0.00
8:53 am 08:53 Sunny 80 26.7 71 21.7 74 74 W 7 11 30.06 1018 10 16 0.00 0.00
9:53 am 09:53 Sunny 83 28.3 71 21.7 67 67 W 7 11 30.06 1018 10 16 0.00 0.00
10:53 am 10:53 Mostly Sunny 86 30 72 22.2 63 63 WSW 8 13 30.06 1018 10 16 0.00 0.00
11:53 am 11:53 Sunny 87 30.6 72 22.2 61 61 SSW 9 15 30.05 1018 10 16 0.00 0.00
12:53 pm 12:53 Sunny 89 31.7 71 21.7 55 55 WSW 10 17 30.04 1017 10 16 0.00 0.00
1:53 pm 13:53 Partly Cloudy 91 32.8 71 21.7 52 52 WSW 9 15 30.01 1016 10 16 0.00 0.00
2:53 pm 14:53 Partly Cloudy 92 33.3 69 20.6 47 47 W 9 15 29.98 1015 10 16 0.00 0.00
3:53 pm 15:53 Partly Cloudy 92 33.3 71 21.7 51 51 SSW 9 15 29.97 1015 10 16 0.00 0.00
4:53 pm 16:53 Partly Cloudy 93 33.9 70 21.1 47 47 WSW 8 13 29.96 1015 10 16 0.00 0.00
5:53 pm 17:53 Mostly Sunny 91 32.8 69 20.6 49 49 SW 10 17 29.94 1014 10 16 0.00 0.00
6:53 pm 18:53 Mostly Sunny 92 33.3 68 20 46 46 WSW 9 15 29.94 1014 10 16 0.00 0.00
7:53 pm 19:53 Sunny 89 31.7 67 19.4 48 48 Calm 29.94 1014 10 16 0.00 0.00
8:53 pm 20:53 Sunny 86 30 70 21.1 59 59 SW 3 6 29.93 1014 10 16 0.00 0.00
9:53 pm 21:53 Mostly Cloudy 83 28.3 71 21.7 67 67 Calm 29.95 1014 10 16 0.00 0.00
10:53 pm 22:53 Clear 80 26.7 70 21.1 71 71 SW 5 7 29.96 1014 10 16 0.00 0.00
11:53 pm 23:53 Mostly Clear 78 25.6 71 21.7 79 79 Calm 29.96 1015 10 16 0.00 0.00

Powered by AerisWeather